DW8935 Weather Reports


Display with metric or nautical units.
time (UTC)temp
F
wind
direction
speed
MPH
gust
MPH
rain 1hr
in
rain 24hr
in
rain mn
in
humidity
%
barometer
mb
20260506001549 60 360 5.0 10.0 0.00 0.00 0.00 61 1019.9
20260506000043 60 340 3.0 11.0 0.00 0.00 0.00 62 1020.0
20260505234548 60 307 1.0 8.0 0.00 0.00 0.00 63 1020.2
20260505233041 60 323 2.0 9.0 0.00 0.00 0.00 64 1020.3
20260505231550 59 322 2.0 7.0 0.00 0.00 0.00 64 1020.4
20260505230052 59 330 2.0 7.0 0.00 0.00 0.00 65 1020.4
20260505224537 58 332 1.0 7.0 0.00 0.00 0.00 65 1020.5
20260505223034 58 348 2.0 7.0 0.00 0.00 0.00 66 1020.5
20260505221535 58 278 2.0 4.0 0.00 0.00 0.00 67 1020.5
20260505220033 57 282 1.0 4.0 0.00 0.00 0.00 68 1020.6
20260505214533 57 309 2.0 6.0 0.00 0.00 0.00 68 1020.6
20260505213032 57 328 0.0 4.0 0.00 0.00 0.00 69 1020.4
20260505211531 57 331 1.0 5.0 0.00 0.00 0.00 69 1020.4
20260505210033 57 311 2.0 4.0 0.00 0.00 0.00 69 1020.5
20260505204530 57 306 1.0 5.0 0.00 0.00 0.00 69 1020.5
20260505203030 57 306 1.0 5.0 0.00 0.00 0.00 69 1020.5
20260505201528 57 324 1.0 4.0 0.00 0.00 0.00 69 1020.6
20260505200029 57 343 1.0 4.0 0.00 0.00 0.00 69 1020.6
20260505194528 57 307 1.0 4.0 0.00 0.00 0.00 70 1020.5
20260505193028 57 326 0.0 3.0 0.00 0.00 0.00 71 1020.7
20260505191525 56 303 0.0 3.0 0.00 0.00 0.00 72 1020.7
20260505190024 56 292 0.0 3.0 0.00 0.00 0.00 73 1020.8
20260505184524 56 325 0.0 3.0 0.00 0.00 0.00 73 1020.8
20260505183032 56 288 1.0 2.0 0.00 0.00 0.00 74 1020.8
20260505181522 56 306 1.0 2.0 0.00 0.00 0.00 75 1020.8
20260505180041 56 301 0.0 2.0 0.00 0.00 0.00 76 1020.8
20260505174522 56 327 0.0 2.0 0.00 0.00 0.00 76 1020.8
20260505173021 57 307 0.0 2.0 0.00 0.00 0.00 76 1020.9
20260505171520 57 286 0.0 2.0 0.00 0.00 0.00 76 1021.0
20260505170022 57 311 0.0 0.0 0.00 0.00 0.00 76 1021.1
20260505164518 57 311 0.0 2.0 0.00 0.00 0.00 76 1021.2
20260505163017 57 302 0.0 3.0 0.00 0.00 0.00 76 1021.3
20260505161616 57 314 1.0 3.0 0.00 0.00 0.00 76 1021.4
20260505153013 57 309 1.0 3.0 0.00 0.00 0.00 77 1021.9
20260505151511 57 325 0.0 4.0 0.00 0.00 0.00 78 1022.0
20260505124559 57 301 0.0 0.0 0.00 0.00 0.00 72 1022.4
20260505123101 58 301 0.0 0.0 0.00 0.00 0.00 72 1022.5
20260505121558 58 301 0.0 3.0 0.00 0.00 0.00 71 1022.5
20260505120059 59 292 1.0 3.0 0.00 0.00 0.00 71 1022.5
20260505114601 59 275 1.0 4.0 0.00 0.00 0.00 71 1022.6
20260505113057 58 305 0.0 4.0 0.00 0.00 0.00 71 1022.7
20260505111557 58 263 1.0 3.0 0.00 0.00 0.00 71 1022.6
20260505101608 58 325 0.0 0.0 0.00 0.00 0.00 73 1022.4
20260505100104 59 263 0.0 0.0 0.00 0.00 0.00 73 1022.5
20260505094553 59 263 0.0 0.0 0.00 0.00 0.00 73 1022.4
20260505093102 59 263 0.0 0.0 0.00 0.00 0.00 73 1022.5
20260505091554 59 263 0.0 0.0 0.00 0.00 0.00 73 1022.4
20260505090052 59 262 0.0 0.0 0.00 0.00 0.00 73 1022.2
20260505084553 59 262 0.0 3.0 0.00 0.00 0.00 73 1022.3
20260505083050 59 263 0.0 0.0 0.00 0.00 0.00 73 1022.1
20260505081601 59 263 0.0 3.0 0.00 0.00 0.00 72 1021.9
20260505080058 60 265 0.0 2.0 0.00 0.00 0.00 71 1021.7
20260505074546 60 252 1.0 4.0 0.00 0.00 0.00 71 1021.5
20260505073048 60 268 1.0 4.0 0.00 0.00 0.00 69 1021.4
20260505071551 60 273 1.0 4.0 0.00 0.00 0.00 67 1021.3
20260505070045 60 245 1.0 4.0 0.00 0.00 0.00 67 1021.3
20260505064543 61 262 1.0 4.0 0.00 0.00 0.00 66 1021.2
20260505063048 61 260 2.0 3.0 0.00 0.00 0.00 64 1021.1
20260505061545 61 253 0.0 3.0 0.00 0.00 0.00 65 1021.1
20260505060042 60 277 2.0 4.0 0.00 0.00 0.00 66 1020.9
20260505054546 60 261 2.0 5.0 0.00 0.00 0.00 66 1020.8
20260505053044 60 255 1.0 5.0 0.00 0.00 0.00 66 1020.7
20260505051541 60 275 2.0 7.0 0.00 0.00 0.00 66 1020.6
20260505041535 60 237 2.0 7.0 0.00 0.00 0.00 65 1020.1
20260505040035 61 304 2.0 6.0 0.00 0.00 0.00 66 1019.9
20260505034534 60 271 2.0 6.0 0.00 0.00 0.00 68 1019.8
20260505033034 60 219 2.0 7.0 0.00 0.00 0.00 68 1019.9
20260505031538 60 321 1.0 6.0 0.00 0.00 0.00 69 1019.9
20260505030033 61 226 4.0 8.0 0.00 0.00 0.00 67 1020.0
20260505024533 61 251 2.0 9.0 0.00 0.00 0.00 68 1019.9
20260505023035 60 246 3.0 9.0 0.00 0.00 0.00 67 1020.0
20260505021535 60 214 3.0 12.0 0.00 0.00 0.00 69 1020.0
20260505020037 60 287 3.0 8.0 0.00 0.00 0.00 70 1020.2
20260505014532 60 323 2.0 11.0 0.00 0.00 0.00 70 1020.1
20260505013032 61 208 4.0 12.0 0.00 0.00 0.00 69 1020.3
20260505011535 61 249 3.0 11.0 0.00 0.00 0.00 71 1020.4
20260505010045 60 254 3.0 10.0 0.00 0.00 0.00 72 1020.4
20260505004525 59 360 3.0 11.0 0.00 0.00 0.00 73 1020.1
20260505003024 59 295 2.0 11.0 0.00 0.00 0.00 74 1019.9